Погода в Лосино-Петровском

Россия / Московская область     55°52′19″N   38°12′03″E
темп.,
°C
ветер,
м/с
пор.,
м/с
влажн.,
%
обл.,
%
осадки,
мм/ч
давл.,
гПа
погр.,
м
24 июля, сб
сб2400:00+14сз410745 0.0 1009402
03:00+11сз27854 0.0 1010161
06:00+13сз2679100 0.0 1011202
09:00+14сз247899 0.0 1012280
12:00+20ссз454184 0.2 10122258
15:00+20ссз344252 0.2 10141941
18:00+17ссз2558100 0.0 1016222
21:00+15с2361100 0.0 101776
25 июля, вс
вс2500:00+14з11618 0.0 101811
03:00+12зсз116770 0.0 101911
06:00+14ююв116192 0.0 102039
09:00+18юз234579 0.0 1021480
12:00+20зюз343799 0.0 10221267
15:00+22з343588 0.0 10211954
18:00+21сз134393 0.0 1021666
21:00+18зюз0053100 0.0 102214
26 июля, пн
пн2600:00+17з115584 0.0 102313
03:00+13з11672 0.0 102410
06:00+15зюз126794 0.0 102444
09:00+18зюз125599 0.0 1024226
12:00+20юз235589 0.0 1025230
15:00+26зсз343177 0.0 10232724
18:00+25зсз23387 0.0 10231833
21:00+18ююз226142 0.0 102335
27 июля, вт
вт2700:00+17з226827 0.0 102314
03:00+15зюз22745 0.0 102429
06:00+17з23736 0.0 102476
09:00+22з235765 0.0 1023398
12:00+27зюз223719 0.0 10222345
15:00+24з255086 0.0 1021299
18:00+23з235229 0.0 1021377
21:00+19зсз22685 0.0 102119
28 июля, ср
ср2800:00+17юз11741 0.0 102111
03:00+17юз22762 0.0 102028
06:00+18юз23768 0.0 101990
09:00+24юз34531 0.0 1018580
12:00+28юз44381 0.0 10162351
15:00+29юз453554 0.0 10142543
18:00+23юз3653100 0.0 1013135
21:00+20ююз3760100 0.0 1012112